GW6793 Weather Reports


Display with metric or nautical units.
time (UTC)temp
F
wind
direction
speed
MPH
gust
MPH
rain 1hr
in
rain 24hr
in
rain mn
in
humidity
%
barometer
mb
20260506173501 79 57 1.0 2.0 0.00 0.00 0.00 86 1010.2
20260506173001 78 57 1.0 2.0 0.00 0.00 0.00 86 1010.4
20260506172501 78 70 0.0 2.0 0.00 0.00 0.00 86 1010.4
20260506172000 78 73 0.0 2.0 0.00 0.00 0.00 86 1010.5
20260506171501 78 73 0.0 2.0 0.00 0.00 0.00 86 1010.5
20260506171002 78 73 1.0 2.0 0.00 0.00 0.00 85 1010.7
20260506170002 78 81 1.0 3.0 0.00 0.00 0.00 84 1010.8
20260506165500 79 109 0.0 2.0 0.00 0.00 0.00 84 1010.7
20260506165001 79 109 0.0 2.0 0.00 0.00 0.00 85 1010.7
20260506164500 79 109 1.0 2.0 0.00 0.00 0.00 85 1010.6
20260506164000 79 109 1.0 3.0 0.00 0.00 0.00 84 1010.6
20260506163501 79 110 0.0 3.0 0.00 0.00 0.00 83 1010.7
20260506163000 79 115 1.0 3.0 0.00 0.00 0.00 83 1010.6
20260506162500 79 116 1.0 3.0 0.00 0.00 0.00 83 1010.6
20260506162001 79 74 2.0 6.0 0.00 0.00 0.00 84 1010.4
20260506161501 79 99 1.0 6.0 0.00 0.00 0.00 83 1010.4
20260506161000 79 163 1.0 4.0 0.00 0.00 0.00 83 1010.2
20260506160501 79 162 1.0 4.0 0.00 0.00 0.00 84 1010.0
20260506155959 79 180 1.0 3.0 0.00 0.00 0.00 84 1009.9
20260506155500 79 79 2.0 6.0 0.00 0.00 0.00 84 1009.9
20260506154959 78 102 1.0 6.0 0.00 0.00 0.00 83 1009.8
20260506154500 78 101 1.0 4.0 0.00 0.00 0.00 85 1009.8
20260506154000 78 101 1.0 4.0 0.00 0.00 0.00 84 1009.6
20260506153459 78 107 1.0 3.0 0.00 0.00 0.00 85 1009.7
20260506152959 78 88 1.0 3.0 0.00 0.00 0.00 84 1009.8
20260506152459 78 167 1.0 4.0 0.00 0.00 0.00 84 1009.8
20260506151959 78 96 1.0 4.0 0.00 0.00 0.00 83 1009.8
20260506150959 78 166 1.0 3.0 0.00 0.00 0.00 83 1009.8
20260506150459 78 163 1.0 4.0 0.00 0.00 0.00 84 1009.6
20260506150000 78 142 1.0 4.0 0.00 0.00 0.00 84 1009.5
20260506145459 78 83 1.0 4.0 0.00 0.00 0.00 85 1009.3
20260506144459 78 128 2.0 6.0 0.00 0.00 0.00 84 1009.3
20260506143000 78 194 1.0 4.0 0.00 0.00 0.00 85 1009.1
20260506142459 78 211 2.0 6.0 0.00 0.00 0.00 85 1009.0
20260506141959 77 210 1.0 6.0 0.00 0.00 0.00 86 1008.8
20260506141459 77 194 1.0 5.0 0.00 0.00 0.00 86 1008.6
20260506141000 77 200 2.0 5.0 0.00 0.00 0.00 86 1008.6
20260506140000 77 111 1.0 6.0 0.00 0.00 0.00 88 1008.5
20260506135501 77 118 1.0 6.0 0.00 0.00 0.00 88 1008.6
20260506135000 77 267 1.0 6.0 0.00 0.00 0.00 89 1008.7
20260506134459 76 103 1.0 6.0 0.00 0.00 0.00 89 1008.7
20260506134000 76 113 2.0 5.0 0.00 0.00 0.00 90 1008.8
20260506133500 76 127 1.0 4.0 0.00 0.00 0.00 90 1008.8
20260506131959 76 234 1.0 7.0 0.00 0.00 0.00 92 1008.9
20260506131500 76 189 1.0 6.0 0.00 0.00 0.00 92 1008.8
20260506130959 75 188 1.0 5.0 0.00 0.00 0.00 92 1008.7
20260506130459 75 196 1.0 5.0 0.00 0.00 0.00 92 1008.7
20260506130001 75 171 1.0 3.0 0.00 0.00 0.00 92 1008.7
20260506125000 75 181 1.0 3.0 0.00 0.00 0.00 93 1008.6
20260506124500 75 116 1.0 3.0 0.00 0.00 0.00 93 1008.6
20260506124001 75 119 0.0 3.0 0.00 0.00 0.00 93 1008.6
20260506123501 74 134 1.0 4.0 0.00 0.00 0.00 93 1008.6
20260506122459 74 189 0.0 2.0 0.00 0.00 0.00 93 1008.5
20260506122000 74 216 1.0 2.0 0.00 0.00 0.00 93 1008.6
20260506120959 74 247 1.0 4.0 0.00 0.00 0.00 93 1008.4
20260506120459 74 184 1.0 6.0 0.00 0.00 0.00 93 1008.4
20260506120001 74 214 1.0 6.0 0.00 0.00 0.00 93 1008.4
20260506115459 74 162 1.0 4.0 0.00 0.00 0.00 93 1008.4
20260506114959 74 194 1.0 4.0 0.00 0.00 0.00 93 1008.3
20260506114459 74 201 1.0 3.0 0.00 0.00 0.00 93 1008.2
20260506114000 74 208 1.0 3.0 0.00 0.00 0.00 93 1008.2
20260506112459 74 214 1.0 4.0 0.00 0.00 0.00 93 1008.2
20260506111959 74 158 1.0 4.0 0.00 0.00 0.00 93 1008.2
20260506110959 74 196 2.0 9.0 0.00 0.00 0.00 93 1008.1
20260506110459 74 234 1.0 9.0 0.00 0.00 0.00 93 1008.1
20260506105959 74 189 2.0 8.0 0.00 0.00 0.00 93 1008.0
20260506104958 74 194 1.0 5.0 0.00 0.00 0.00 93 1007.9
20260506102958 74 199 1.0 6.0 0.00 0.00 0.00 93 1007.7
20260506102458 74 202 1.0 6.0 0.00 0.00 0.00 92 1007.7
20260506101958 74 180 1.0 4.0 0.00 0.00 0.00 92 1007.6
20260506101458 74 164 1.0 4.0 0.00 0.00 0.00 92 1007.6
20260506100958 74 183 1.0 5.0 0.00 0.00 0.00 92 1007.6
20260506100000 74 225 1.0 3.0 0.00 0.00 0.00 92 1007.5
20260506095458 74 203 1.0 5.0 0.00 0.00 0.00 92 1007.6
20260506095000 74 195 1.0 5.0 0.00 0.00 0.00 92 1007.6
20260506094459 74 173 1.0 4.0 0.00 0.00 0.00 92 1007.5
20260506093458 74 202 2.0 5.0 0.00 0.00 0.00 91 1007.4
20260506092958 74 215 2.0 5.0 0.00 0.00 0.00 91 1007.4
20260506092459 74 213 2.0 5.0 0.00 0.00 0.00 91 1007.4
20260506091458 74 183 1.0 5.0 0.00 0.00 0.00 91 1007.4
20260506090958 74 120 1.0 4.0 0.00 0.00 0.00 91 1007.4
20260506090000 74 213 1.0 4.0 0.00 0.00 0.00 91 1007.4
20260506085458 74 227 1.0 5.0 0.00 0.00 0.00 91 1007.4
20260506084958 74 219 1.0 4.0 0.00 0.00 0.00 91 1007.5
20260506084458 74 64 1.0 4.0 0.00 0.00 0.00 91 1007.6
20260506083959 74 207 1.0 4.0 0.00 0.00 0.00 91 1007.5
20260506083458 74 211 1.0 2.0 0.00 0.00 0.00 90 1007.4
20260506082958 74 215 1.0 4.0 0.00 0.00 0.00 90 1007.5
20260506081958 74 203 2.0 6.0 0.00 0.00 0.00 90 1007.5
20260506081458 74 194 1.0 6.0 0.00 0.00 0.00 90 1007.6
20260506073457 74 234 1.0 4.0 0.00 0.00 0.00 89 1007.9
20260506072957 74 237 1.0 4.0 0.00 0.00 0.00 89 1008.0
20260506072457 74 186 1.0 7.0 0.00 0.00 0.00 89 1007.9
20260506071957 74 220 2.0 7.0 0.00 0.00 0.00 89 1008.0
20260506071457 74 211 1.0 5.0 0.00 0.00 0.00 89 1008.0
20260506070957 74 170 1.0 4.0 0.00 0.00 0.00 89 1008.0
20260506070458 74 206 2.0 5.0 0.00 0.00 0.00 89 1008.1
20260506062456 75 237 2.0 8.0 0.00 0.00 0.00 88 1008.4
20260506060957 75 216 2.0 5.0 0.00 0.00 0.00 87 1008.4
20260506060457 75 200 1.0 5.0 0.00 0.00 0.00 87 1008.4
20260506051005 75 199 2.0 5.0 0.00 0.00 0.00 86 1008.8
20260506050504 75 111 2.0 9.0 0.00 0.00 0.00 86 1008.7
20260506045005 76 200 3.0 7.0 0.00 0.00 0.00 86 1008.7
20260506044504 76 188 3.0 6.0 0.00 0.00 0.00 85 1008.6
20260506042505 76 202 1.0 6.0 0.00 0.00 0.00 85 1008.5
20260506042004 76 233 1.0 5.0 0.00 0.00 0.00 85 1008.5
20260506041504 76 198 1.0 4.0 0.00 0.00 0.00 85 1008.5
20260506041004 76 193 1.0 4.0 0.00 0.00 0.00 85 1008.6
20260506040504 76 225 1.0 4.0 0.00 0.00 0.00 85 1008.6
20260506040005 76 209 1.0 3.0 0.00 0.00 0.00 85 1008.6
20260506035504 76 227 1.0 3.0 0.00 0.00 0.00 85 1008.5
20260506035004 76 230 1.0 2.0 0.00 0.00 0.00 85 1008.5
20260506034506 76 190 1.0 4.0 0.00 0.00 0.00 85 1008.5
20260506034004 76 235 1.0 5.0 0.00 0.00 0.00 85 1008.5
20260506033002 76 217 1.0 2.0 0.00 0.00 0.00 85 1008.3
20260506032504 76 221 1.0 3.0 0.00 0.00 0.00 85 1008.1
20260506032004 76 179 1.0 4.0 0.00 0.00 0.00 84 1008.0
20260506031505 76 202 1.0 4.0 0.00 0.00 0.00 84 1008.0
20260506031004 76 210 1.0 5.0 0.00 0.00 0.00 84 1008.0
20260506030504 76 162 2.0 5.0 0.00 0.00 0.00 84 1007.9
20260506030005 76 190 1.0 5.0 0.00 0.00 0.00 84 1007.7
20260506025504 76 197 2.0 4.0 0.00 0.00 0.00 84 1007.7
20260506025005 76 261 2.0 8.0 0.00 0.00 0.00 84 1007.5
20260506024505 76 193 2.0 8.0 0.00 0.00 0.00 84 1007.4
20260506024004 76 54 1.0 5.0 0.00 0.00 0.00 84 1007.4
20260506023504 76 209 2.0 5.0 0.00 0.00 0.00 84 1007.3
20260506023004 77 222 2.0 10.0 0.00 0.00 0.00 84 1007.2
20260506022504 77 159 2.0 10.0 0.00 0.00 0.00 84 1007.2
20260506022003 77 221 2.0 9.0 0.00 0.00 0.00 83 1007.1
20260506021504 77 173 2.0 9.0 0.00 0.00 0.00 83 1007.1
20260506021004 77 242 1.0 5.0 0.00 0.00 0.00 83 1007.1
20260506015003 77 198 1.0 5.0 0.00 0.00 0.00 83 1006.8
20260506014502 77 223 2.0 5.0 0.00 0.00 0.00 83 1006.8
20260506014004 77 196 2.0 4.0 0.00 0.00 0.00 83 1006.7
20260506013503 77 192 2.0 8.0 0.00 0.00 0.00 82 1006.7
20260506013003 77 179 2.0 8.0 0.00 0.00 0.00 82 1006.6
20260506012503 77 219 2.0 8.0 0.00 0.00 0.00 82 1006.6
20260506012003 77 194 2.0 9.0 0.00 0.00 0.00 82 1006.5
20260506011503 77 122 2.0 9.0 0.00 0.00 0.00 82 1006.5
20260506011003 77 170 2.0 9.0 0.00 0.00 0.00 82 1006.4
20260506010504 78 211 2.0 9.0 0.00 0.00 0.00 81 1006.4
20260506010003 78 155 1.0 9.0 0.00 0.00 0.00 81 1006.3
20260506005503 78 231 1.0 3.0 0.00 0.00 0.00 81 1006.2
20260506005003 78 229 2.0 5.0 0.00 0.00 0.00 81 1006.1
20260506004503 78 171 2.0 8.0 0.00 0.00 0.00 80 1006.1
20260506004003 78 190 2.0 9.0 0.00 0.00 0.00 80 1006.0
20260506002502 79 225 2.0 12.0 0.00 0.00 0.00 79 1006.0
20260506002003 79 171 2.0 6.0 0.00 0.00 0.00 79 1005.9
20260506001504 79 59 2.0 6.0 0.00 0.00 0.00 79 1005.9
20260506000503 79 146 4.0 11.0 0.00 0.00 0.00 78 1005.8
20260506000002 80 184 3.0 9.0 0.00 0.00 0.00 77 1005.7
20260505235503 80 176 2.0 7.0 0.00 0.00 0.00 77 1005.6
20260505235003 80 92 2.0 7.0 0.00 0.00 0.00 77 1005.6
20260505234502 80 217 3.0 14.0 0.00 0.00 0.00 77 1005.6
20260505233503 80 180 3.0 10.0 0.00 0.00 0.00 77 1005.6
20260505232502 81 144 3.0 10.0 0.00 0.00 0.00 76 1005.6
20260505232004 81 215 3.0 10.0 0.00 0.00 0.00 75 1005.6
20260505231502 82 118 3.0 9.0 0.00 0.00 0.00 74 1005.6
20260505231003 82 172 3.0 8.0 0.00 0.00 0.00 74 1005.5
20260505230503 82 169 3.0 8.0 0.00 0.00 0.00 74 1005.5
20260505230002 82 159 3.0 11.0 0.00 0.00 0.00 74 1005.6
20260505225002 82 205 4.0 14.0 0.00 0.00 0.00 74 1005.5
20260505224502 82 170 3.0 14.0 0.00 0.00 0.00 74 1005.3
20260505224002 82 201 3.0 9.0 0.00 0.00 0.00 73 1005.3
20260505223504 82 224 4.0 10.0 0.00 0.00 0.00 74 1005.5
20260505223002 83 164 4.0 10.0 0.00 0.00 0.00 73 1005.5
20260505222502 83 215 4.0 12.0 0.00 0.00 0.00 73 1005.6
20260505222002 82 171 4.0 11.0 0.00 0.00 0.00 73 1005.7
20260505221502 82 159 4.0 11.0 0.00 0.00 0.00 73 1005.6
20260505221003 83 180 3.0 10.0 0.00 0.00 0.00 73 1005.7
20260505220501 83 171 3.0 9.0 0.00 0.00 0.00 72 1005.8
20260505215502 83 213 3.0 11.0 0.00 0.00 0.00 72 1005.8
20260505215003 83 224 3.0 11.0 0.00 0.00 0.00 71 1005.8
20260505214001 83 209 3.0 11.0 0.00 0.00 0.00 71 1005.9
20260505213502 84 105 3.0 9.0 0.00 0.00 0.00 70 1006.0
20260505213002 84 119 4.0 12.0 0.00 0.00 0.00 70 1006.2
20260505212502 84 146 4.0 12.0 0.00 0.00 0.00 71 1006.2
20260505212001 84 229 4.0 17.0 0.00 0.00 0.00 72 1006.2
20260505211501 84 169 3.0 17.0 0.00 0.00 0.00 71 1006.3
20260505211003 84 144 2.0 7.0 0.00 0.00 0.00 73 1006.4
20260505210006 83 172 3.0 9.0 0.00 0.00 0.00 72 1006.7
20260505205503 83 217 3.0 9.0 0.00 0.00 0.00 72 1006.8
20260505205002 83 198 3.0 10.0 0.00 0.00 0.00 72 1006.9
20260505204502 83 119 3.0 10.0 0.00 0.00 0.00 71 1007.0
20260505204002 84 163 3.0 10.0 0.00 0.00 0.00 71 1007.1
20260505203502 83 201 3.0 9.0 0.00 0.00 0.00 73 1007.2
20260505203002 84 227 4.0 8.0 0.00 0.00 0.00 71 1007.2
20260505202003 84 221 4.0 15.0 0.00 0.00 0.00 71 1007.3
20260505201002 84 188 3.0 11.0 0.00 0.00 0.00 71 1007.4
20260505200501 84 119 3.0 11.0 0.00 0.00 0.00 71 1007.4
20260505195502 84 203 3.0 10.0 0.00 0.00 0.00 70 1007.6
20260505195004 84 187 3.0 11.0 0.00 0.00 0.00 71 1007.6
20260505194502 84 171 3.0 11.0 0.00 0.00 0.00 71 1007.7
20260505194002 84 86 3.0 9.0 0.00 0.00 0.00 71 1007.8
20260505193502 84 173 3.0 11.0 0.00 0.00 0.00 71 1007.7
20260505193004 84 128 2.0 8.0 0.00 0.00 0.00 73 1007.8
20260505192002 83 157 3.0 13.0 0.00 0.00 0.00 73 1007.9
20260505191002 83 227 2.0 11.0 0.00 0.00 0.00 73 1008.1
20260505190503 83 202 4.0 11.0 0.00 0.00 0.00 73 1008.0
20260505190003 84 201 4.0 12.0 0.00 0.00 0.00 71 1008.0
20260505184500 83 141 4.0 8.0 0.00 0.00 0.00 73 1008.1
20260505184002 83 220 4.0 10.0 0.00 0.00 0.00 72 1008.2
20260505183501 83 186 4.0 11.0 0.00 0.00 0.00 72 1008.2
20260505183001 83 215 5.0 14.0 0.00 0.00 0.00 73 1008.2
20260505182501 83 211 5.0 14.0 0.00 0.00 0.00 72 1008.2
20260505182001 83 185 4.0 12.0 0.00 0.00 0.00 72 1008.3
20260505181502 83 234 4.0 10.0 0.00 0.00 0.00 74 1008.3
20260505181001 82 199 3.0 10.0 0.00 0.00 0.00 75 1008.3
20260505180502 81 215 4.0 12.0 0.00 0.00 0.00 78 1008.4
20260505180000 80 264 4.0 15.0 0.00 0.00 0.00 78 1008.4
20260505175459 80 243 4.0 15.0 0.00 0.00 0.00 77 1008.5
20260505175000 80 255 4.0 11.0 0.00 0.00 0.00 77 1008.5
20260505174000 80 231 4.0 9.0 0.00 0.00 0.00 77 1008.6